Location: Étouvelles
(49.5207°N, 3.5808°E)
Time: 14:11:30
(UTC+00:00)

Cosmos 1954 Rocket - Pass Details

Date: 03 February 2023
Orbit: 752 x 780 km, 74.0° (Epoch: 21 March)

Event Time Altitude Azimuth Distance (km) Brightness Sun altitude
Rises 18:11:09 0° 200° (SSW) 3,230 7.6 -14.3°
Reaches altitude 10° 18:13:31 10° 200° (SSW) 2,303 6.8 -14.7°
Maximum altitude 18:18:45 87° 112° (ESE) 772 3.9 -15.5°
Drops below altitude 10° 18:23:59 10° 24° (NNE) 2,301 6.2 -16.4°
Enters shadow 18:25:01 - 24° (NNE) 2,704 6.5 -16.5°
